Henderson, NV

1:21 PM PDT on June 25, 2017 (GMT -0700)
Henderson

Weather History for KHND - January, 2014

Change the Weather History Date:

Tuesday, January 28, 2014

  Actual Average (KLAS) Record (KLAS)
Temperature  
Mean Temperature 54 °F -  
Max Temperature 66 °F 58 °F 71 °F (1971)
Min Temperature 43 °F 35 °F 18 °F (1937)
Degree Days  
Heating Degree Days 10    
Growing Degree Days 4 (Base 50)    
Moisture  
Dew Point 18 °F    
Average Humidity 25    
Maximum Humidity 33    
Minimum Humidity 16    
Precipitation  
Precipitation 0.00 in - - ()
Sea Level Pressure  
Sea Level Pressure 30.14 in    
Wind  
Wind Speed 6 mph (SSE)    
Max Wind Speed 10 mph    
Max Gust Speed -    
Visibility 10 miles    
Events Rain    
Averages and records for this station are not official NWS values.
T = Trace of Precipitation, MM = Missing Value Source: NWS Daily Summary

Daily Weather History Graph

Daily Weather History Graph

Search for Another Location

Airport or City:

Trip Planner

Search our weather history database for the weather conditions in past years. The results will help you decide how hot, cold, wet, or windy it might be!

Date:

Astronomy

Jan. 28, 2014 Rise Set
Actual Time 6:43 AM PST 5:03 PM PST
Civil Twilight 6:16 AM PST 5:30 PM PST
Nautical Twilight 5:45 AM PST 6:01 PM PST
Astronomical Twilight 5:15 AM PST 6:31 PM PST
Moon 4:28 AM PST (1/28) 2:59 PM PST (1/28)
Length of Visible Light 11h 13m
Length of Day
10h 19m
Waning Crescent, 6% of the Moon is Illuminated
Jan 28
Waning Crescent
Jan 30
New
Feb 6
First Quarter
Feb 14
Full
Feb 22
Last Quarter

Hourly Weather History & Observations

Time (PST) Temp. Windchill Dew Point Humidity Pressure Visibility Wind Dir Wind Speed Gust Speed Precip Events Conditions
12:56 AM 47.8 °F - 10.0 °F 22% 30.07 in 10.0 mi South 9.2 mph - N/A   Clear
1:56 AM 45.0 °F 40.1 °F 12.0 °F 26% 30.09 in 10.0 mi South 9.2 mph - N/A   Clear
2:56 AM 45.9 °F 41.7 °F 11.1 °F 25% 30.09 in 10.0 mi South 8.1 mph - N/A   Clear
3:56 AM 45.0 °F 40.6 °F 12.0 °F 26% 30.08 in 10.0 mi SSE 8.1 mph - N/A   Clear
4:56 AM 43.9 °F 39.3 °F 14.0 °F 30% 30.11 in 10.0 mi South 8.1 mph - N/A   Clear
5:56 AM 43.9 °F 41.3 °F 13.1 °F 29% 30.15 in 10.0 mi South 4.6 mph - N/A   Clear
6:56 AM 45.0 °F 40.6 °F 14.0 °F 29% 30.18 in 10.0 mi South 8.1 mph - N/A   Partly Cloudy
7:56 AM 47.8 °F - 19.0 °F 32% 30.19 in 10.0 mi SSE 5.8 mph - 0.00 in Rain Heavy Rain
8:56 AM 55.9 °F - 19.0 °F 24% 30.20 in 10.0 mi Calm Calm - 0.00 in   Partly Cloudy
9:56 AM 61.0 °F - 18.1 °F 19% 30.20 in 10.0 mi Calm Calm - N/A   Scattered Clouds
10:56 AM 61.9 °F - 19.0 °F 19% 30.19 in 10.0 mi ENE 5.8 mph - N/A   Mostly Cloudy
11:56 AM 63.9 °F - 19.0 °F 18% 30.17 in 10.0 mi Variable 6.9 mph - N/A   Scattered Clouds
12:56 PM 63.9 °F - 19.0 °F 18% 30.14 in 10.0 mi Calm Calm - N/A   Clear
1:56 PM 63.9 °F - 19.0 °F 18% 30.12 in 10.0 mi WSW 3.5 mph - N/A   Clear
2:56 PM 66.9 °F - 19.0 °F 16% 30.10 in 10.0 mi Calm Calm - N/A   Clear
3:56 PM 66.9 °F - 20.1 °F 17% 30.12 in 10.0 mi NNE 5.8 mph - N/A   Clear
4:56 PM 63.0 °F - 20.1 °F 19% 30.13 in 10.0 mi Calm Calm - N/A   Clear
5:56 PM 59.0 °F - 20.1 °F 22% 30.15 in 10.0 mi Calm Calm - N/A   Clear
6:56 PM 54.0 °F - 22.1 °F 29% 30.16 in 10.0 mi South 5.8 mph - N/A   Clear
7:56 PM 50.9 °F - 22.1 °F 32% 30.17 in 10.0 mi SSE 8.1 mph - N/A   Clear
8:56 PM 50.9 °F - 21.0 °F 31% 30.14 in 10.0 mi SSE 8.1 mph - 0.00 in Rain Heavy Rain
9:56 PM 48.9 °F - 20.1 °F 32% 30.17 in 10.0 mi South 8.1 mph - 0.00 in Rain Heavy Rain
10:56 PM 47.8 °F - 20.1 °F 33% 30.17 in 10.0 mi South 10.4 mph - 0.00 in Rain Heavy Rain
11:56 PM 47.8 °F - 20.1 °F 33% 30.16 in 10.0 mi SSW 10.4 mph - 0.00 in Rain Heavy Rain